Regional Weather Roundup
Issued by NWS Northern Indiana

Home | Current Version | Previous Version | Graphics & Text | Print | Product List | Glossary On
Versions: 1 2 3 4 5 6 7 8 9 10 11 12 13 14 15 16 17 18 19 20 21 22 23 24 25 26 27 28 29 30 31 32 33 34 35 36 37 38 39 40 41 42 43 44 45 46 47 48 49 50
326
ASUS43 KIWX 030410
RWRIWX

KIWX WEATHER ROUNDUP
NATIONAL WEATHER SERVICE NORTHERN INDIANA
1100 PM EST FRI DEC 02 2016

NOTE: "FAIR" INDICATES FEW OR NO CLOUDS BELOW 12,000 FEET WITH NO
SIGNIFICANT WEATHER AND/OR OBSTRUCTIONS TO VISIBILITY.

* THESE STATIONS ARE NOT UNDER NWS QUALITY CONTROL. THEY ALSO MAY NOT
  REPORT WEATHER SUCH AS PRECIPITATION OR FOG.

INZ001>027-030500-
NORTHERN INDIANA

CITY           SKY/WX    TMP DP  RH WIND       PRES   REMARKS
GARY*          CLOUDY    38  26  61 W9        30.32R
VALPARAISO     CLOUDY    37  26  64 W8        30.30S
MICHIGAN CITY* CLOUDY    36  28  75 NW5       30.30S
LAPORTE*       CLOUDY    38  34  86 CALM      30.30R
SOUTH BEND     NOT AVBL
GOSHEN         CLOUDY    35  27  72 W5        30.28S WCI  31
MONTICELLO*    CLOUDY    36  30  78 W5        30.30S
LOGANSPORT*    CLOUDY    34  32  93 W5        30.31S WCI  30
ROCHESTER*     CLOUDY    37  36  93 CALM      30.30R
WARSAW*        CLOUDY    34  28  80 W3        30.29S
ANGOLA*        CLOUDY    36  28  75 NW3       30.26R
FORT WAYNE     NOT AVBL
HUNTINGTON*    CLOUDY    36  31  82 NW5       30.29S
PERU/GRISSOM   CLOUDY    36  35  95 W6        30.28R
MARION*        CLOUDY    36  33  88 W9        30.30R FOG

$$
INZ028>050-030500-
CENTRAL INDIANA

CITY           SKY/WX    TMP DP  RH WIND       PRES   REMARKS
KOKOMO*        CLOUDY    37  32  82 W8        30.31R
MUNCIE*        CLOUDY    38  32  79 W5        30.29R
INDIANAPOLIS   CLOUDY    37  34  89 W6        30.31S

$$
MIZ043>046-050>051-056>058-064>065-071>073-077>080-030500-
SOUTHWEST LOWER MICHIGAN

CITY           SKY/WX    TMP DP  RH WIND       PRES   REMARKS
BATTLE CREEK   CLOUDY    35  30  82 W5        30.26S WCI  31
BENTON HARBOR  CLOUDY    38  26  62 W10       30.28S
COLDWATER*     CLOUDY    36  28  73 W6        30.26S
HILLSDALE*     CLOUDY    34  28  80 W7        30.23S WCI  28
HOLLAND        CLOUDY    38  29  70 W5        30.27R
GRAND RAPIDS   CLOUDY    36  27  69 W8        30.27R
KALAMAZOO      CLOUDY    36  28  73 W3        30.27R
STURGIS*       CLOUDY    36  26  67 NW3       30.26S
THREE RIVERS*  CLOUDY    37  29  73 W6        30.27S

$$
OHZ001>008-015>018-024>025-030500-
NORTHWEST OHIO

CITY           SKY/WX    TMP DP  RH WIND       PRES   REMARKS
WAUSEON*       CLOUDY    36  30  80 W10       30.26S
DEFIANCE       CLEAR     34  26  72 CALM      30.28S
FINDLAY        CLEAR     33  26  75 W8        30.26R WCI  26
TOLEDO EXPRESS CLOUDY    36  29  75 W8        30.26R
TOLEDO METCALF CLOUDY    38  31  76 W8        30.27R
LIMA           CLOUDY    33  29  85 W5        30.27S WCI  29

$$
AND FOR LAKE MICHIGAN COASTAL AND OPEN LAKE BUOY OBSERVATIONS

STATION/POSITION TEMP    WIND        PRES    VSBY  WAVE
                 AIR SEA DIR/SP/G                  HT/PER
                 (F)     (DEG/KT/KT) (MB)    (MI)  (FT/S)
CALUMET HARBOR    36     250/  6/ 11 1025.8R
MICHIGAN CITY     38     270/ 11/ 13   N/A
BURNS HARBOR      39     270/ 12/ 14 1026.4R
SAINT JOSEPH      39     270/  8/ 13 1025.7
SOUTH LAKE BUOY   37 49  300/ 10/ 14 1025.9S         2/ 5

$$
&&




USA.gov is the U.S. government's official web portal to all federal, state and local government web resources and services.